FENGYUN 1C DEB, 32094

Orbit data source: Space-Track

FENGYUN 1C DEB, 32094 is space debris in SSO originally from a launch on Mon, 10 May 1999 UTC launched from the Taiyaun Space Center, China (TSC). Fengyun 1C debris stems from the Chinese weather satellite Fengyun-1C, which was intentionally destroyed by a Chinese anti-satellite missile in 2007. This event dramatically increased the amount of space debris, with thousands of trackable fragments posing hazards to satellites and human spaceflight. The Fengyun 1C debris cloud has become a focal point in discussions about space sustainability and the need for international regulations to prevent the creation of new debris.

Loading next visibility...
Identifier
32094, 1999-025CQL
Orbit
SSO
Country
Flag of CNCN / PRC
Related business
Manufacturer
Unknown
Mission
Spacecraft
Bus & Motor
Unknown
Mass
Unknown
Launch date (UTC)
1999-05-10 (27 years ago)
Launch vehicle
Unknown
Launch site
Taiyaun Space Center, China (TSC)
Object type
Payload
Rocket body
Debris
Shape & HBR
Unknown shape, 0.1 m
Radar Cross Section
Small (<0.1 m²)

Expand to show TLE details & history
Last TLE update: 6 days ago

TLE from 6 days ago
0 FENGYUN 1C DEB
1 32094U 99025CQL 26158.92724650  .00000500  00000-0  30016-3 0  9998
2 32094  98.7563 149.7779 0035936 124.6944 235.7622 14.10969546968632
Epoch: 2026-06-07T22:15Z
TLE epoch observation values (Epoch: 2026-06-07T22:15:14.097Z)
Latitude
Longitude
-80.35227°
Altitude
873.65 km
Speed
7.408 km/s
True Right ascension
09h 59m 06s
True Declination
0° 00' 00"
Sunlit
Object was in daylight at epoch
Visualization orbit readout
Latitude
Unknown
Longitude
Unknown
Altitude
Unknown
Speed
Unknown
Apparent Right ascension
Unknown
Apparent Declination
Unknown
Sunlit
N/A
Visualization observer readout
Local Sidereal Time
15:40:11
Azimuth
Unknown
Elevation
Unknown
Doppler factor
Unknown
Orbital elements
Apogee altitude
879.215 km
Perigee altitude
827.242 km
Semi-major axis
7,231.366 km
Eccentricity
0.00359
Inclination
98.7563°
RAAN
149.7779°
Arg. of periapsis
124.6944°
True anomaly
235.42262°
Mean anomaly
235.7622°
Eccentric anomaly
235.59233°
Mean motion
3.5295 °/min
Orbital period
102 mins
BSTAR
0.00030016
Loading maneuver chart data...
Computing Atmospheric mass density...

Documentation

Showing up to 5 results
|